Location: Newark
(44.1667°N, 8.2500°E)
Time: 19:20:34
(UTC+00:00)

Vanguard 2 - Pass Details

Date: 08 December 2019
Orbit: 553 x 2938 km, 32.9° (Epoch: 28 January)

Event Time Altitude Azimuth Distance (km) Brightness Sun altitude
Exits shadow 03:19:40 43° 220° (SW) 3,701 10.5 -36.6°
Maximum altitude 03:25:29 55° 175° (S) 3,270 10.5 -35.6°
Drops below altitude 10° 03:40:22 10° 103° (ESE) 4,988 12.5 -32.9°
Sets 03:43:50 0° 99° (E) 5,735 13.1 -32.3°
